This demonstration page uses our WeatherBlox Daily Observations layout. Learn more.

41.55636, -103.73856

Hourly Observations for May 23, 2019

Temp ( °F °C ) Dew Point ( °F °C ) Humidity (%) Winds ( mph kmh ) Pressure ( in mb ) Visibility ( mi km ) Precip ( " mm )
12:53 am 00:53 Clear 33 0.6 33 0.6 100 100 WNW 7 11 30.06 1018 10 16.09344 0 0
1:53 am 01:53 Mostly Clear 34 1.1 33 0.6 97 97 Calm 30.06 1018 10 16.09344 0 0
2:53 am 02:53 Clear 34 1.1 33 0.6 97 97 NW 5 7 30.09 1019 10 16.09344 0 0
3:53 am 03:53 Mostly Clear 33 0.6 32 0 96 96 NNW 5 7 30.09 1019 10 16.09344 0 0
4:53 am 04:53 Cloudy 34 1.1 34 1.1 100 100 NNW 6 9 30.09 1019 10 16.09344 0 0
5:53 am 05:53 Sunny 33 0.6 33 0.6 100 100 NNW 3 6 30.12 1020 10 16.09344 0 0
6:53 am 06:53 Cloudy 36 2.2 34 1.1 93 93 Calm 30.15 1021 10 16.09344 0 0
7:53 am 07:53 Cloudy 41 5 38 3.3 89 89 WNW 6 9 30.12 1020 10 16.09344 0 0
8:53 am 08:53 Cloudy 43 6.1 38 3.3 82 82 NW 3 6 30.15 1021 10 16.09344 0 0
9:53 am 09:53 Mostly Cloudy 47 8.3 39 3.9 74 74 N 5 7 30.12 1020 10 16.09344 0 0
10:53 am 10:53 Cloudy 50 10 39 3.9 66 66 VRB 5 7 30.09 1019 10 16.09344 0 0
11:53 am 11:53 Cloudy 53 11.7 41 5 64 64 SE 9 15 30.06 1018 10 16.09344 0 0
12:53 pm 12:53 Mostly Cloudy 56 13.3 41 5 57 57 SE 15 24 30.06 1018 10 16.09344 0 0
1:53 pm 13:53 Mostly Cloudy 58 14.4 41 5 53 53 E 13 20 30 1016 10 16.09344 0 0
2:53 pm 14:53 Cloudy 59 15 40 4.4 49 49 ESE 16 26 29.94 1014 10 16.09344 0 0
3:53 pm 15:53 Cloudy 59 15 41 5 51 51 SE 18 30 29.91 1013 10 16.09344 0 0
4:53 pm 16:53 Cloudy 54 12.2 42 5.6 64 64 SE 20 31 29.91 1013 10 16.09344 0 0
5:43 pm 17:43 Cloudy 51 10.6 43 6.1 74 74 SE 20 31 29.88 1012 10 16.09344 0 0
5:53 pm 17:53 Cloudy 50 10 43 6.1 77 77 SE 18 30 29.91 1013 10 16.09344 0 0
6:53 pm 18:53 Cloudy 49 9.4 43 6.1 80 80 SE 13 20 29.91 1013 10 16.09344 0 0
7:53 pm 19:53 Cloudy 48 8.9 44 6.7 86 86 SE 13 20 29.91 1013 10 16.09344 0 0
8:53 pm 20:53 Cloudy 47 8.3 45 7.2 93 93 S 10 17 29.94 1014 9 14.484096 0 0
9:53 pm 21:53 Cloudy with Light Rain 47 8.3 45 7.2 93 93 SSE 10 17 29.91 1013 10 16.09344 0.02 0.508
10:10 pm 22:10 Cloudy with Light Rain 46 8 45 7 93 93 SSE 8 13 29.91 1013 10 16.09344 0 0
10:53 pm 22:53 Mostly Cloudy 45 7.2 45 7.2 100 100 SSE 10 17 29.91 1013 10 16.09344 0.001 0.001
11:53 pm 23:53 Cloudy 46 7.8 45 7.2 96 96 SE 9 15 29.85 1011 10 16.09344 0 0

Powered by AerisWeather